This is the latest recevied weather packets stored in our database for station/object AA7VG. If no packets are shown the sender has not sent any weather packets the latest 10 day(s).
| Time | Temp. | Humidity | Pressure | Rain* | Wind** | Luminosity | Snow |
|---|---|---|---|---|---|---|---|
| 1787777704 | 33.33° C | 20% | 1020.1 hPa | 0 mm | - | - | - |
| 1787777400 | 32.78° C | 20% | 1020.1 hPa | 0 mm | - | - | - |
| 1787777100 | 32.78° C | 20% | 1020.2 hPa | 0 mm | - | - | - |
| 1787776799 | 33.33° C | 20% | 1020.2 hPa | 0 mm | - | - | - |
| 1787776498 | 33.33° C | 20% | 1020.3 hPa | 0 mm | - | - | - |
| 1787776195 | 33.33° C | 20% | 1020.3 hPa | 0 mm | - | - | - |
| 1787775890 | 33.33° C | 20% | 1020.4 hPa | 0 mm | - | - | - |
| 1787775585 | 32.78° C | 22% | 1020.3 hPa | 0 mm | - | - | - |
| 1787775284 | 31.67° C | 24% | 1020.5 hPa | 0 mm | - | - | - |
| 1787774984 | 32.78° C | 23% | 1020.7 hPa | 0 mm | - | - | - |
| 1787774683 | 32.22° C | 23% | 1020.8 hPa | 0 mm | - | - | - |
| 1787774382 | 32.22° C | 23% | 1020.8 hPa | 0 mm | - | - | - |
| 1787774082 | 32.22° C | 23% | 1021 hPa | 0 mm | - | - | - |
| 1787773780 | 31.67° C | 25% | 1021 hPa | 0 mm | - | - | - |
| 1787773471 | 31.67° C | 25% | 1020.9 hPa | 0 mm | - | - | - |
| 1787773167 | 30.56° C | 26% | 1021.2 hPa | 0 mm | - | - | - |
| 1787772862 | 31.11° C | 26% | 1021.1 hPa | 0 mm | - | - | - |
| 1787772561 | 30.56° C | 28% | 1021.2 hPa | 0 mm | - | - | - |
| 1787772256 | 30.56° C | 25% | 1021.1 hPa | 0 mm | - | - | - |
| 1787771954 | 31.11° C | 24% | 1021.1 hPa | 0 mm | - | - | - |
| 1787771649 | 30.56° C | 25% | 1021.2 hPa | 0 mm | - | - | - |
| 1787771348 | 31.67° C | 24% | 1021.2 hPa | 0 mm | - | - | - |
| 1787771043 | 30.56° C | 27% | 1021.5 hPa | 0 mm | - | - | - |
| 1787770742 | 31.11° C | 26% | 1021.6 hPa | 0 mm | - | - | - |
| 1787770437 | 30° C | 27% | 1021.7 hPa | 0 mm | - | - | - |
* Rain latest hour (hover to see other rain measurements)
** Current wind speed in m/s (hover to see current wind gust speed)